Location: 10033 Water Well
(34.0865°N, 106.8959°W)
Time: 22:44:36
(UTC+00:00)

Cosmos 1603 - Pass Details

Date: 13 January 2026
Orbit: 831 x 857 km, 71.0° (Epoch: 10 February)

Event Time Altitude Azimuth Distance (km) Brightness Sun altitude
Rises 01:29:08 0° 206° (SSW) 3,393 7.5 -14.4°
Reaches altitude 10° 01:31:35 10° 209° (SSW) 2,458 6.8 -14.9°
Maximum altitude 01:37:12 67° 292° (WNW) 908 4.0 -16.0°
Drops below altitude 10° 01:42:48 10° 15° (NNE) 2,454 5.8 -17.1°
Enters shadow 01:43:46 - 16° (NNE) 2,817 6.1 -17.3°
